Regional Weather Roundup
Issued by NWS

Home | Current Version | Previous Version | Text Only | Print | Product List | Glossary On
Versions: 1 2 3 4 5 6 7 8 9 10 11 12 13 14 15 16 17 18 19 20 21 22 23 24 25 26 27 28 29 30 31 32 33 34 35 36 37 38 39 40 41 42 43 44 45 46 47 48 49 50
000
ASUS43 KDTX 280210
RWRMI
MICHIGAN HOURLY REGIONAL WEATHER ROUNDUP
NATIONAL WEATHER SERVICE DETROIT/PONTIAC MI
1000 PM EDT WED AUG 27 2014

NOTE: "FAIR" INDICATES FEW OR NO CLOUDS BELOW 12,000 FEET WITH NO
SIGNIFICANT WEATHER AND/OR OBSTRUCTION TO VISIBILITY.

MIZ047>049-052>055-059>063-066>070-074>076-081>083-280300-
SOUTHEAST LOWER MICHIGAN

CITY           SKY/WX    TMP DP  RH WIND       PRES   REMARKS
ADRIAN         CLOUDY    66  60  81 NE5       30.12R
ALMA           PTCLDY    64  54  68 N12       30.13R
ANN ARBOR      MOCLDY    61  57  87 CALM      30.11R
BAD AXE        CLOUDY    61  55  78 NE5       30.13S
DETROIT CITY   PTCLDY    68  59  73 NE8       30.11R
DETROIT        MOCLDY    69  58  67 N5        30.10R
FLINT          PTCLDY    69  57  65 NE6       30.11R
GROSSE ILE     MOCLDY    70  63  78 NE5       30.09R
HILLSDALE      CLOUDY    66  62  88 CALM      30.12S
HOWELL         CLOUDY    65  61  88 CALM      30.11R

CITY           SKY/WX    TMP DP  RH WIND       PRES   REMARKS
JACKSON        MOCLDY    64  60  87 CALM      30.11S
LAMBERTVILLE   CLOUDY    68  59  73 CALM      30.11R
LANSING        MOCLDY    64  59  83 CALM      30.11S
LAPEER         NOT AVBL
MASON          MOCLDY    62  59  92 CALM      30.11S
MT. CLEMENS    PTCLDY    62  54  75 NE7       30.10R
PONTIAC        MOCLDY    66  58  75 NE5       30.11R
PORT HOPE        N/A     64  53  67 N10       30.12R
PORT HURON     CLEAR     55  54  94 CALM      30.12R
TRI CITIES     CLOUDY    67  53  61 N12       30.13R
YPSILANTI      MOCLDY    70  59  68 CALM      30.11R
$$
MIZ043>046-050>051-056>058-064>065-071>073-077>080-280300-
SOUTHWEST LOWER MICHIGAN

CITY           SKY/WX    TMP DP  RH WIND       PRES   REMARKS
BATTLE CREEK   MOCLDY    68  61  78 NW6       30.13R
BENTON HARBOR  CLOUDY    63  59  87 E3        30.12R
BIG RAPIDS     PTCLDY    60  55  82 CALM      30.14R
COLDWATER      CLOUDY    66  61  83 CALM      30.12R
HOLLAND        MOCLDY    66  53  63 CALM      30.14R
GRAND RAPIDS   PTCLDY    66  58  75 N9        30.13R
KALAMAZOO      CLOUDY    66  59  78 N8        30.13R
MARSHALL       MOCLDY    63  60  90 CALM      30.11S
MUSKEGON       MOCLDY    65  53  65 N5        30.14R
$$
MIZ016>042-280300-
NORTHERN LOWER MICHIGAN

CITY           SKY/WX    TMP DP  RH WIND       PRES   REMARKS
ALPENA         CLEAR     56  48  74 NW6       30.15R
BEAVER ISLAND  CLEAR     51  47  86 CALM      30.18R
BELLAIRE       PTCLDY    52  50  92 CALM      30.16S
CADILLAC       CLEAR     54  50  87 N3        30.16R
CHARLEVOIX     MOCLDY    62  46  55 NE7       30.19S
FRANKFORT      CLEAR     59  51  74 CALM      30.15S
GAYLORD        CLOUDY    57  49  74 VRB3      30.16S
GRAYLING       CLEAR     51  50  95 NW3       30.17S
HARBOR SPRINGS CLEAR     53  48  82 N3        30.17R
HOUGHTON LAKE  CLEAR     55  49  80 N6        30.16S
MANISTEE       CLEAR     55  50  82 SW3       30.15S
OSCODA         CLEAR     57  50  76 NW12      30.13S
PELLSTON       CLEAR     48  45  89 W3        30.17R
TRAVERSE CITY  CLEAR     63  46  54 VRB5      30.15R
$$
MIZ007>008-015-280300-
EASTERN UPPER MICHIGAN

CITY           SKY/WX    TMP DP  RH WIND       PRES   REMARKS
KINROSS        CLEAR     54  48  82 NE5       30.16R
MACKINAC ISLAN CLEAR     52  46  78 NW6       30.16S
NEWBERRY       CLEAR     51  42  72 NW5       30.16S
S. S. MARIE    CLEAR     54  46  74 NW5       30.15S
$$
MIZ004>006-011>014-085-280300-
CENTRAL UPPER MICHIGAN

CITY           SKY/WX    TMP DP  RH WIND       PRES   REMARKS
MANISTIQUE     CLEAR     47  45  90 CALM      30.17R
ESCANABA       CLEAR     61  45  55 NE5       30.16R
MENOMINEE      CLEAR     57  54  88 CALM      30.13S
SAWYER-GWINN   CLEAR     54  46  76 N3        30.17S
$$
MIZ001>003-009>011-084-280300-
WESTERN UPPER MICHIGAN

CITY           SKY/WX    TMP DP  RH WIND       PRES   REMARKS
IRON MOUNTAIN  MOCLDY    56  52  86 N8        30.15R
HOUGHTON       CLEAR     50  46  86 NW3       30.17R
COPPER HARBOR    N/A     53  46  77 W3        30.16R
$$

ABBREVIATIONS USED IN REMARKS
   TC - TEMPERATURE IN CELSIUS
  WCI - WIND CHILL INDEX
   HX - HEAT INDEX
  VSB - VISIBILITY



USA.gov is the U.S. government's official web portal to all federal, state and local government web resources and services.